Location: Usti nad Labem
(50.6670°N, 14.0330°E)
Time: 22:43:50
(UTC+01:00)

Envisat - Pass Details

Date: 05 December 2020
Orbit: 764 x 766 km, 98.1° (Epoch: 15 January)

Event Time Altitude Azimuth Distance (km) Brightness Sun altitude
Rises 05:28:01 0° 19° (NNE) 3,246 6.4 -21.3°
Reaches altitude 10° 05:30:29 10° 27° (NNE) 2,315 5.7 -20.9°
Maximum altitude 05:35:16 40° 97° (E) 1,121 4.4 -20.1°
Drops below altitude 10° 05:40:01 10° 167° (SSE) 2,297 5.8 -19.4°
Sets 05:42:27 0° 174° (S) 3,218 6.5 -19.0°
